Regional Weather Roundup
Issued by NWS

Home | Current Version | Previous Version | Text Only | Print | Product List | Glossary Off
Versions: 1 2 3 4 5 6 7 8 9 10 11 12 13 14 15 16 17 18 19 20 21 22 23 24 25 26 27 28 29 30 31 32 33 34 35 36 37 38 39 40 41 42 43 44 45 46 47 48 49 50

000
ASUS43 KMPX 011510
RWRMN
WEATHER ROUNDUP FOR MINNESOTA
NATIONAL WEATHER SERVICE TWIN CITIES/CHANHASSEN MN
1000 AM CDT FRI AUG 01 2014


NOTE: "FAIR" INDICATES FEW OR NO CLOUDS BELOW 12,000 FEET WITH NO
SIGNIFICANT WEATHER AND/OR OBSTRUCTIONS TO VISIBILITY. N/A MEANS
CURRENT SKY AND/OR WEATHER CONDITIONS ARE NOT AVAILABLE.

MNZ060>063-068>070-011600-
   Twin Cities Metro

CITY           SKY/WX    TMP DP  RH WIND       PRES   REMARKS
TWIN CITIES    SUNNY     75  62  64 W5        30.06S
ST PAUL        SUNNY     74  62  66 CALM      30.06S
CRYSTAL        SUNNY     76  61  59 VRB3      30.05S
BLAINE         SUNNY     75  63  64 CALM      30.06S
LAKEVILLE      SUNNY     73  61  64 W3        30.07S
EDEN PRAIRIE   SUNNY     73  63  70 CALM      30.06S
SOUTH ST PAUL  SUNNY     74  62  64 CALM      30.06S
LAKE ELMO      FAIR      73  64  73 CALM      30.07S
$$
MNZ001>005-007-008-013>017-022>024-027-028-011600-
   Northwest Minnesota

CITY           SKY/WX    TMP DP  RH WIND       PRES   REMARKS
BEMIDJI        SUNNY     71  57  61 NW6       30.07S
HALLOCK        SUNNY     72  61  68 N6        30.06F
ROSEAU         SUNNY     70  61  73 CALM      30.07S
WARROAD        SUNNY     70  63  78 CALM      30.07S
CROOKSTON      SUNNY     72  61  68 N6        30.08R
FOSSTON        SUNNY     72  61  68 N6        30.08R
DETROIT LAKES  SUNNY     72  61  68 CALM      30.08S
MOORHEAD       MOSUNNY   70  66  88 CALM      30.07S
PARK RAPIDS    SUNNY     73  60  63 N6        30.06F
$$
MNZ006-009>011-018-025>026-011600-
   North Central Minnesota

CITY           SKY/WX    TMP DP  RH WIND       PRES   REMARKS
BAUDETTE       SUNNY     71  63  75 N3        30.07R
FLAG ISLAND    SUNNY     70  57  64 NE5       30.05F
INTL FALLS     SUNNY     70  58  65 NE3       30.06S
WASKISH        SUNNY     66  63  88 CALM      30.06S
BIG FORK       SUNNY     72  61  68 SW3       30.06S
LONGVILLE      SUNNY     70  64  83 CALM      30.06S
GRAND RAPIDS   SUNNY     72  57  60 SW5       30.07S
CRANE LAKE     SUNNY     64  57  77 CALM      30.07S
ORR            SUNNY     70  57  64 CALM      30.04S
COOK           SUNNY     68  59  73 CALM      30.06S
$$
MNZ012-019>021-037-011600-
   Northeast Minnesota

CITY           SKY/WX    TMP DP  RH WIND       PRES   REMARKS
DULUTH         SUNNY     66  53  63 SE3       30.07S
ELY            SUNNY     64  54  68 CALM      30.07S
HIBBING        SUNNY     71  57  61 CALM      30.07R
EVELETH        SUNNY     66  55  68 CALM      30.07F
DULUTH HARBOR  SUNNY     63  55  77 E3        30.08S
TWO HARBORS    SUNNY     66  54  63 CALM      30.05S
SILVER BAY     SUNNY     66  57  72 CALM      30.05S
GRAND MARAIS     N/A     60  51  72 CALM      30.06S
G MARAIS ARPRT MOSUNNY   64  48  55 S5        30.10S
$$
MNZ029>031-032-039>041-046>048-054>057-064-011600-
   West Central Minnesota

CITY           SKY/WX    TMP DP  RH WIND       PRES   REMARKS
FERGUS FALLS   SUNNY     72  63  73 CALM      30.06S
WHEATON        SUNNY     72  61  68 NW8       30.09S
MORRIS         SUNNY     75  63  64 NW5       30.07S
ALEXANDRIA     SUNNY     73  60  63 NW5       30.09S
ELBOW LAKE     FAIR      71  62  73 NW3       30.07S
WADENA         SUNNY     72  64  78 CALM      30.07S
GLENWOOD       SUNNY     73  63  68 NW6       30.09S
APPLETON       SUNNY     75  63  64 CALM      30.08R
BENSON         SUNNY     72  61  68 N3        30.08S
ORTONVILLE     SUNNY     73  57  56 CALM      30.08S
MADISON        SUNNY     75  63  64 CALM      30.08S
WILLMAR        FAIR      73  59  60 NW3       30.09S
$$
MNZ033>034-036-042>043-049>051-058-059-011600-
   Central Minnesota

CITY           SKY/WX    TMP DP  RH WIND       PRES   REMARKS
ST CLOUD       SUNNY     76  61  59 CALM      30.06S
SAUK CENTRE    FAIR      72  62  71 CALM      30.08S
PAYNESVILLE    MOSUNNY   72  59  63 W3        30.08S
AITKIN         SUNNY     73  64  73 CALM      30.05S
PINE RIVER     MOSUNNY   72  63  73 CALM      30.09S
BRAINERD       MOSUNNY   72  63  73 NW6       30.07F
STAPLES        MOSUNNY   70  61  73 CALM      30.07F
LONG PRAIRIE   FAIR      70  61  73 CALM      30.08S
LITTLE FALLS   MOSUNNY   72  59  64 N3        30.07S
LITCHFIELD     SUNNY     75  64  69 W5        30.08S
BUFFALO        SUNNY     73  62  68 CALM      30.07F
MAPLE LAKE     SUNNY     73  64  71 CALM      30.08S
$$
MNZ037-044-045-052-053-011600-
   East Central Minnesota

CITY           SKY/WX    TMP DP  RH WIND       PRES   REMARKS
PRINCETON      SUNNY     75  59  57 CALM      30.07R
MORA           SUNNY     70  59  68 CALM      30.08S
CAMBRIDGE      SUNNY     75  61  60 CALM      30.05S
RUSH CITY      SUNNY     72  62  70 CALM      30.06S
MOOSE LAKE     SUNNY     68  59  73 CALM      30.05S
HINCKLEY       FAIR      72  64  78 CALM      30.06S
CLOQUET        SUNNY     66  55  68 CALM      30.07S
MCGREGOR       SUNNY     70  61  73 CALM      30.07S
$$
MNZ071>073-080-081-089-090-097-098-011600-
   Southwest Minnesota

CITY           SKY/WX    TMP DP  RH WIND       PRES   REMARKS
MONTEVIDEO     SUNNY     75  66  73 CALM      30.09S
GRANITE FALLS  SUNNY     70  59  68 NW5       30.10S
CANBY          SUNNY     76  59  56 CALM      30.10S
MARSHALL       SUNNY     73  61  64 CALM      30.09S
REDWOOD FALLS  SUNNY     72  59  63 VRB3      30.08S
OLIVIA         SUNNY     73  63  68 W3        30.07S
PIPESTONE      SUNNY     72  57  60 CALM      30.11S
WINDOM         SUNNY     73  61  64 CALM      30.10S
WORTHINGTON    SUNNY     70  63  78 SW3       30.13S
JACKSON        SUNNY     72  61  68 NW3       30.11S
TRACY          SUNNY     75  60  59 CALM      30.10S
SLAYTON        SUNNY     72  60  66 CALM      30.12S
$$
MNZ065>067-074>077-082>085-091>093-011600-
   South Central Minnesota

CITY           SKY/WX    TMP DP  RH WIND       PRES   REMARKS
MANKATO        SUNNY     72  59  64 NW5       30.09R
NEW ULM        SUNNY     72  61  68 NW5       30.08S
ST JAMES       SUNNY     75  61  60 CALM      30.10S
FAIRMONT       SUNNY     73  59  60 N3        30.10R
GLENCOE        SUNNY     74  59  60 NW5       30.07S
FARIBAULT      SUNNY     75  57  53 W3        30.08S
OWATONNA       SUNNY     72  59  64 CALM      30.09S
WASECA         SUNNY     70  59  68 CALM      30.11S
ALBERT LEA     SUNNY     73  61  64 W3        30.09S
$$
MNZ078>079-086>088-094>096-011600-
   Southeast Minnesota

CITY           SKY/WX    TMP DP  RH WIND       PRES   REMARKS
ROCHESTER      SUNNY     74  59  59 W6        30.10F
RED WING       SUNNY     73  61  64 CALM      30.05S
STANTON        SUNNY     74  61  64 W3        30.06F
DODGE CENTER   SUNNY     73  59  60 NW6       30.09S
WINONA         SUNNY     73  59  60 CALM      30.07S
AUSTIN         SUNNY     73  59  60 NW3       30.09S
PRESTON        SUNNY     73  63  72 NW3       30.10S
$$
ABBREVIATIONS USED IN REMARKS
   TC - TEMPERATURES IN CELSIUS
  WCI - WIND CHILL INDEX
   HX - HEAT INDEX
  VSB - VISIBILITY
$$


USA.gov is the U.S. government's official web portal to all federal, state and local government web resources and services.